Terug naar catalogus

STARLINK-37421

ActiefCommunicatieSSO
NORAD 68821·PAYLOAD·🇺🇸 United States

Gelanceerd Apr 23, 2026 vanaf Vandenberg Space Force Base

Loading…

Volgende Passages (komende 24 uur)

TLE

VersSource: CelesTrak SupGP

Epoch: Sep 14, 2026, 21:22 UTC

1 68821C 26089V   26257.89076389  .00060632  00000+0  18829-2 0  2575
2 68821  97.2851 103.7649 0001922  95.3209 191.5776 15.33394185    10

Volg STARLINK-37421 in realtime met AllMySat

Download on the App Store